Location: Kapla
(46.2483°N, 15.0094°E)
Time: 13:45:08
(UTC+00:00)

Cosmos 1943 Rocket - Pass Details

Date: 03 March 2021
Orbit: 811 x 844 km, 71.0° (Epoch: 19 April)

Event Time Altitude Azimuth Distance (km) Brightness Sun altitude
Rises 19:00:59 0° 341° (NNW) 3,414 5.8 -23.4°
Reaches altitude 10° 19:05:15 10° 12° (NNE) 2,474 4.7 -24.1°
Enters shadow 19:07:12 12° 32° (NNE) 2,325 4.3 -24.4°
